Miscellaneous Local Product
Issued by NWS North Platte, NE

Home | Current Version | Previous Version | Text Only | Print | Product List | Glossary On
Versions: 1 2 3 4 5 6 7 8 9 10 11 12 13 14 15 16 17 18 19 20 21 22 23 24 25 26 27 28 29 30 31 32 33 34 35 36 37 38 39 40 41 42 43 44 45 46 47 48 49 50
000
AXUS43 KLBF 021710
MISLBF


WESTERN AND NORTH CENTRAL NEBRASKA HOURLY WEATHER ROUNDUP
NATIONAL WEATHER SERVICE NORTH PLATTE NE
1200 PM CDT SUN AUG 02 2015

***STATIONS NOT REPORTING VARIABLES SUCH AS SKY/WEATHER OR
PRESSURE ARE PROVIDED BY THE NEBRASKA DEPARTMENT OF
ROADS...RAWS...AND APRS NETWORKS...AND ARE NOT UNDER
NATIONAL WEATHER SERVICE QUALITY CONTROL***

...OBSERVATIONS IN AND NEAR THE EASTERN PANHANDLE OF NEBRASKA...

CITY           SKY/WX    TMP DP  RH WIND       PRES   REMARKS
PINE RIDGE     SUNNY     83  56  39 NE7       29.99R
CHADRON        SUNNY     87  52  29 N10       29.98S
ALLIANCE       SUNNY     87  60  40 NE6       30.01S
SIDNEY         SUNNY     90  56  31 SE9       30.04S
BIG SPRINGS      N/A     85  61  44 CALM        N/A
$$

...OBSERVATIONS IN NORTH CENTRAL NEBRASKA...

CITY           SKY/WX    TMP DP  RH WIND       PRES   REMARKS
THEDFORD       SUNNY     89  65  44 N7        29.95S HX  91
AINSWORTH      SUNNY     85  62  46 N9        29.92S
O`NEILL        SUNNY     85  66  53 NW10      29.89R
ORD            SUNNY     89  68  49 VRB5      29.88S HX  93
BROKEN BOW     SUNNY     90  65  43 W6        29.92F HX  92
SPRINGVIEW       N/A     84  66  54 NE5G14      N/A
CHAMBERS         N/A     90  63  40 NW3         N/A  HX  91
EWING            N/A     87  71  59 N3          N/A  HX  92
$$

...OBSERVATIONS IN SOUTHWEST NEBRASKA AND FAR NORTHEAST COLORADO...

CITY           SKY/WX    TMP DP  RH WIND       PRES   REMARKS
WRAY           FAIR      88  58  36 NE6       30.03S
HOLYOKE        FAIR      88  59  37 SE8       30.02S
IMPERIAL       MOSUNNY   86  66  51 VRB7      29.99R
OGALLALA       SUNNY     82  66  56 S6        29.98S
NORTH PLATTE   SUNNY     89  62  40 S6        29.94S
MCCOOK         SUNNY     91  68  46 CALM      29.94S HX  95
LEXINGTON      SUNNY     89  71  54 S7        29.93S HX  94
PAXTON           N/A     84  69  59 CALM        N/A
BRADY            N/A     87  70  57 CALM        N/A  HX  92
CALLAWAY         N/A     89  74  61 S5          N/A  HX  98
$$

...NORTH PLATTE AREA...

CITY           SKY/WX    TMP DP  RH WIND       PRES   REMARKS
AIRPORT        SUNNY     89  62  40 S6        29.94S
DOWNTOWN         N/A     92  65  40 CALM        N/A  HX  94
SANDRIDGE        N/A     90  62  38 SW3         N/A  HX  90
HILLCREST        N/A     87  63  44 W5          N/A
$$

...SOME WEATHER OBSERVATIONS FROM AROUND THE REGION...

CITY           SKY/WX    TMP DP  RH WIND       PRES   REMARKS
DENVER         PTSUNNY   86  50  28 VRB3      30.10F
LARAMIE        SUNNY     78  42  27 N7        30.25S
CHEYENNE       SUNNY     86  48  26 NE13      30.15S
SCOTTSBLUFF    SUNNY     82  61  48 VRB3      30.02S
RAPID CITY     MOSUNNY   77  53  43 N7        30.01S
PIERRE         SUNNY     83  57  41 NE14      29.89R
WINNER         FAIR      85  59  41 N12       29.90R
SIOUX FALLS    PTSUNNY   82  66  58 N10G17    29.81R
OMAHA          MOSUNNY   92  72  51 SW14      29.83F HX  99
GRAND ISLAND   SUNNY     89  72  56 W12       29.90S HX  96
KANSAS CITY    MOSUNNY   86  72  62 SW12      29.92S HX  92
WICHITA        MOSUNNY   86  69  56 SW14G21   29.95S HX  90
HAYS           SUNNY     90  66  45 S9        29.94S HX  92
LIBERAL        SUNNY     82  64  54 CALM      29.99S
GOODLAND       SUNNY     88  60  38 SE8       30.01S
$$



USA.gov is the U.S. government's official web portal to all federal, state and local government web resources and services.